Content
SEND FEEDBACK

Daily
Averages
Monthly
Summary
United States of America

NIXON, NEVADA


Home > North America > United States > Nevada
Elevation: 4133 feet     Latitude: 39 57N     Longitude: 119 37W

WEATHER
 
SELECT A DAY
Number of Records: 76,676;   Date Range: 9/21/11 - 12/26/14
 
SHARE

PRINT THIS DATA

[ ← Previous Day ]
WEATHER ALMANAC - FEBRUARY 13, 2013
[ Next Day → ]
[ °C ]   °F
Weather ElementAverageHighLow
Temperature33.3 °F50 °F (2:10 pm) (7:35 am)
Dewpoint21.5 °F24.8 °F (8:35 am) (7:00 pm)
Humidity64.8 %86 % (3:10 am)37 % (1:15 pm)
Barometer29.49 in30.41 in (9:55 am) (7:00 pm)
Wind Speed3.2 mph11.5 mph (3:10 pm)
Wind Gust16.1 mph (3:10 pm)
Weather ElementAverage
Visibility10 mi
Wind DirectionESE (102.9 °)

Weather ElementTotal
Precipitation---
Heating Degree Days40 (Base 65)
Averaged from 70 records on February 13, 2013
WEATHER CONDITIONS BREAKOUT
WIND DIRECTION BREAKOUT
WEATHER BY HOUR - FEBRUARY 13, 2013
[ °C ]   °F
Local TimeTemperatureDewpointHumidityBarometerVisibilityWind DirectionWind SpeedGust SpeedPrecipitationEventsConditions
12:35 AM24.8 °F19.4 °F80 %30.39 in10.0 miSE (130°)3.5 mphClear
12:55 AM23.0 °F17.6 °F80 %30.39 in10.0 miCalmClear
1:15 AM23.0 °F17.6 °F80 %30.39 in10.0 miCalmClear
1:30 AM24.8 °F19.4 °F80 %30.39 in10.0 miNorth (10°)4.6 mphClear
1:50 AM24.8 °F19.4 °F80 %30.39 in10.0 miCalmClear
2:10 AM24.8 °F19.4 °F80 %30.39 in10.0 miCalmClear
2:35 AM24.8 °F19.4 °F80 %30.38 in10.0 miCalmClear
2:55 AM24.8 °F19.4 °F80 %30.38 in10.0 miCalmClear
3:10 AM23.0 °F19.4 °F86 %30.37 in10.0 miCalmClear
3:35 AM23.0 °F17.6 °F80 %30.37 in10.0 miNorthClear
4:10 AM19.4 °F15.8 °F86 %30.37 in10.0 miWNW (300°)3.5 mphClear
4:30 AM19.4 °F15.8 °F86 %30.37 in10.0 miCalmClear
4:50 AM19.4 °F15.8 °F86 %30.37 in10.0 miCalmClear
5:10 AM21.2 °F17.6 °F86 %30.37 in10.0 miCalmClear
5:30 AM21.2 °F17.6 °F86 %30.38 in10.0 miCalmClear
5:50 AM23.0 °F19.4 °F86 %30.38 in10.0 miCalmClear
6:15 AM23.0 °F19.4 °F86 %30.38 in8.0 miNE (40°)4.6 mphClear
6:30 AM19.4 °F15.8 °F86 %30.38 in10.0 miNW (310°)3.5 mphClear
6:50 AM19.4 °F15.8 °F86 %30.39 in10.0 miWSW (250°)3.5 mphClear
7:10 AM19.4 °F15.8 °F86 %30.40 in10.0 miNorth (350°)3.5 mphClear
7:35 AM0.0 °F0.0 °F10.0 miNorth
7:55 AM24.8 °F21.2 °F86 %30.39 in10.0 miCalm
8:10 AM26.6 °F23.0 °F86 %30.39 in10.0 miCalmClear
8:35 AM32.0 °F24.8 °F75 %30.40 in10.0 miNNE (30°)3.5 mphClear
8:55 AM32.0 °F24.8 °F75 %30.40 in10.0 miCalmClear
9:15 AM33.8 °F24.8 °F70 %30.40 in10.0 miSouth (190°)4.6 mphClear
9:35 AM33.8 °F24.8 °F70 %30.40 in10.0 miSW (220°)3.5 mphClear
9:55 AM37.4 °F24.8 °F60 %30.41 in10.0 miCalmClear
10:15 AM39.2 °F24.8 °F56 %30.40 in10.0 miCalmClear
10:35 AM39.2 °F23.0 °F52 %30.40 in10.0 miCalmClear
10:55 AM41.0 °F23.0 °F49 %30.40 in10.0 miCalmClear
11:15 AM42.8 °F23.0 °F46 %30.39 in10.0 miSouth (170°)3.5 mphClear
11:35 AM44.6 °F23.0 °F43 %30.38 in10.0 miCalmClear
11:55 AM44.6 °F21.2 °F39 %30.37 in10.0 miESE (110°)3.5 mphClear
12:15 PM46.4 °F23.0 °F40 %30.36 in10.0 miCalmClear
12:35 PM46.4 °F24.8 °F43 %30.36 in10.0 miSouth (190°)3.5 mphClear
12:55 PM46.4 °F23.0 °F40 %30.35 in10.0 miCalmClear
1:15 PM48.2 °F23.0 °F37 %30.34 in10.0 miESE (120°)4.6 mphClear
1:35 PM48.2 °F24.8 °F40 %30.33 in10.0 miSE (130°)5.8 mphClear
1:55 PM48.2 °F24.8 °F40 %30.33 in10.0 miSouth (170°)3.5 mphClear
2:10 PM50.0 °F24.8 °F37 %30.32 in10.0 miSE (130°)8.1 mphClear
2:35 PM50.0 °F24.8 °F37 %30.32 in10.0 miEast (100°)9.2 mphClear
2:55 PM50.0 °F24.8 °F37 %30.32 in10.0 miEast (90°)10.4 mphClear
3:10 PM50.0 °F24.8 °F37 %30.32 in10.0 miEast (90°)11.5 mph16.1 mphClear
3:35 PM50.0 °F24.8 °F37 %30.31 in10.0 miEast (80°)6.9 mphClear
3:55 PM50.0 °F24.8 °F37 %30.31 in10.0 miEast (80°)5.8 mphClear
4:15 PM50.0 °F24.8 °F37 %30.31 in10.0 miEast (80°)6.9 mphClear
4:35 PM50.0 °F24.8 °F37 %30.31 in10.0 miEast (80°)6.9 mphClear
4:55 PM48.2 °F24.8 °F40 %30.30 in10.0 miENE (70°)6.9 mphClear
5:15 PM48.2 °F23.0 °F37 %30.30 in10.0 miEast (80°)4.6 mphClear
5:35 PM0.0 °F0.0 °FNorth
5:55 PM42.8 °F23.0 °F46 %30.31 in10.0 miSE (130°)4.6 mph
6:15 PM39.2 °F23.0 °F52 %30.31 in10.0 miNW (310°)3.5 mphClear
6:30 PM39.2 °F23.0 °F52 %30.31 in10.0 miCalmClear
6:50 PM35.6 °F24.8 °F65 %30.31 in10.0 miNNE (20°)3.5 mphClear
7:10 PM37.4 °F24.8 °F60 %30.32 in10.0 miNorth (360°)6.9 mphClear
7:30 PM35.6 °F23.0 °F60 %30.32 in10.0 miNNW (340°)5.8 mphClear
7:50 PM35.6 °F24.8 °F65 %30.32 in10.0 miNorth (10°)4.6 mphClear
8:15 PM35.6 °F24.8 °F65 %30.32 in10.0 miNNW (340°)3.5 mphClear
8:30 PM32.0 °F23.0 °F69 %30.32 in10.0 miNorth (360°)6.9 mphClear
8:50 PM32.0 °F24.8 °F75 %30.32 in10.0 miNNW (340°)6.9 mphClear
9:10 PM32.0 °F24.8 °F75 %30.32 in10.0 miNorth (350°)8.1 mphClear
9:30 PM30.2 °F24.8 °F80 %30.33 in10.0 miNorth (350°)5.8 mphClear
9:50 PM30.2 °F24.8 °F80 %30.33 in10.0 miCalmClear
10:10 PM28.4 °F23.0 °F80 %30.33 in10.0 miNW (320°)5.8 mphClear
10:30 PM26.6 °F23.0 °F86 %30.33 in10.0 miNNE (30°)5.8 mphClear
10:55 PM32.0 °F24.8 °F75 %30.34 in10.0 miCalmClear
11:10 PM28.4 °F23.0 °F80 %30.34 in10.0 miCalmClear
11:30 PM30.2 °F23.0 °F75 %30.34 in10.0 miCalmClear
11:50 PM28.4 °F23.0 °F80 %30.34 in10.0 miNNW (340°)5.8 mphClear
Hourly data recorded from KRTS, located miles away from Nixon, Nevada







STORIES FROM OUR PARTNERS